[[{"header":{"parameterUnit":"m.s-1","parameterCategory":1,"la1":30.2991,"la2":30.254,"lo1":-89.0895,"lo2":-89.0444,"dy":0.0017,"dx":0.0017,"nx":28,"ny":28,"refTime":"2026-02-27T03:00:00:Z","depth":0,"parameterNumber":2,"parameterNumberName":"U-component_of_WINDS"},"data":[0,0,0,0,0,0,0,0,0,0,0,0,0,0,0,0,0,0,0,0,0,0,0,0,0,0,0,0,0,0,0,0,0,0,0,0,0,0,0,0,0,0,0,0,0,0,0,0,0,0,0,0,0,0,0,0,0,0,-1.4239,-1.4239,0,-1.4174,-1.4173,-1.4172,-1.4135,-1.4135,-1.4135,-1.4135,-1.407,-1.4068,-1.4067,0,0,0,0,0,0,0,0,0,0,0,0,0,-1.4335,-1.4333,-1.4239,-1.4239,-1.4238,-1.4174,-1.4173,-1.4172,-1.4135,-1.4135,-1.4135,-1.4135,-1.4071,-1.4069,-1.4067,0,0,0,0,0,0,0,0,0,0,0,0,0,-1.4284,-1.4333,-1.424,-1.4212,-1.4208,-1.4174,-1.4173,-1.4172,-1.4135,-1.4135,-1.4135,-1.4135,-1.4071,-1.4069,-1.4066,-1.4055,0,0,-1.4059,-1.4058,0,0,0,0,0,0,0,0,-1.4287,-1.428,-1.4217,-1.4214,-1.421,-1.4162,-1.4183,-1.4133,-1.4135,-1.4163,-1.4135,-1.4135,-1.4101,-1.4096,-1.4084,-1.4052,-1.405,-1.4059,-1.4057,-1.4056,-1.4056,0,0,0,0,0,0,0,-1.429,-1.4283,-1.4214,-1.4216,-1.4212,-1.4203,-1.4196,-1.4173,-1.4134,-1.4161,-1.4158,-1.4151,-1.4099,-1.4087,-1.4083,-1.4049,-1.4059,-1.4057,-1.4055,-1.4054,-1.4005,-1.4005,0,0,0,0,0,0,-1.4298,-1.4286,-1.4216,-1.4212,-1.4249,-1.4202,-1.4193,-1.4178,-1.4134,-1.4127,-1.4151,-1.4149,-1.4091,-1.4085,-1.408,-1.4065,-1.4056,-1.4054,-1.4053,-1.4005,-1.4005,-1.4005,0,0,0,0,0,0,-1.43,-1.4292,-1.4218,-1.4248,-1.4238,-1.42,-1.4183,-1.4177,-1.4164,-1.4127,-1.412,-1.4145,-1.4091,-1.4084,-1.4062,-1.4062,-1.4053,-1.4051,-1.4005,-1.4005,-1.4005,-1.4034,0,0,0,0,0,0,-1.4303,-1.4293,-1.4288,-1.4248,-1.4236,-1.42,-1.4183,-1.4176,-1.416,-1.4157,-1.412,-1.4113,-1.409,-1.4066,-1.4059,-1.4059,-1.4049,-1.4005,-1.4005,-1.4005,-1.4033,-1.4035,-1.4037,0,0,0,0,0,-1.4307,-1.4299,-1.4288,-1.428,-1.4229,-1.42,-1.4194,-1.4167,-1.416,-1.4155,-1.4131,-1.4114,-1.4063,-1.4064,-1.4056,-1.4055,-1.4004,-1.4005,-1.4005,-1.4032,-1.4035,-1.4037,0,0,0,0,0,0,-1.434,-1.4293,-1.428,-1.426,-1.4234,-1.4194,-1.4187,-1.4171,-1.4147,-1.4145,-1.4113,-1.4105,-1.4087,-1.4069,-1.407,-1.4042,-1.4032,-1.4031,-1.4055,-1.4057,-1.4059,-1.4064,-1.4047,0,0,0,0,0,-1.4345,-1.4325,-1.4285,-1.4271,-1.4259,-1.4225,-1.4212,-1.4193,-1.4166,-1.4155,-1.4129,-1.4104,-1.4082,-1.4069,-1.4046,-1.403,-1.4022,-1.4025,-1.4027,-1.4029,-1.4029,-1.4019,-1.4021,-1.4006,-1.4006,-1.4006,0,0,-1.4356,-1.4327,-1.4317,-1.4277,-1.4255,-1.4236,-1.4216,-1.4197,-1.4182,-1.4152,-1.413,-1.411,-1.408,-1.4061,-1.4051,-1.4045,-1.4031,-1.403,-1.4031,-1.403,-1.402,-1.4021,-1.4023,-1.4006,-1.4006,-1.4006,0,0,-1.4364,-1.4341,-1.4326,-1.4305,-1.4272,-1.4249,-1.4246,-1.4208,-1.4194,-1.4171,-1.4148,-1.4131,-1.4094,-1.4073,-1.4058,-1.406,-1.4044,-1.4053,-1.4065,-1.4056,-1.4057,-1.4058,-1.4059,-1.406,-1.4053,-1.4053,-1.4053,0,-1.4381,-1.4351,-1.4321,-1.4302,-1.4286,-1.4257,-1.4243,-1.4224,-1.4185,-1.4175,-1.4169,-1.4122,-1.4099,-1.4075,-1.4076,-1.4064,-1.406,-1.4058,-1.4059,-1.406,-1.406,-1.4061,-1.4061,-1.4054,-1.4054,-1.4054,-1.4054,0,-1.4373,-1.4353,-1.4345,-1.4308,-1.4291,-1.4275,-1.4243,-1.4229,-1.4212,-1.4191,-1.4169,-1.4141,-1.4113,-1.4105,-1.4089,-1.4079,-1.4077,-1.4065,-1.4054,-1.4063,-1.4064,-1.4064,-1.4056,-1.4056,-1.4056,-1.4055,0,0,-1.4402,-1.4349,-1.4347,-1.433,-1.4291,-1.4275,-1.4258,-1.423,-1.4219,-1.4193,-1.4179,-1.4148,-1.4137,-1.412,-1.4101,-1.4093,-1.4097,-1.4082,-1.4081,-1.4087,-1.4085,-1.4095,-1.4096,-1.4086,-1.4086,-1.4085,-1.4088,0,-1.4405,-1.4372,-1.4345,-1.4323,-1.4303,-1.4276,-1.4261,-1.4236,-1.4216,-1.4197,-1.4175,-1.4154,-1.4141,-1.4131,-1.4122,-1.4098,-1.4096,-1.4097,-1.4073,-1.4072,-1.4081,-1.4095,-1.4105,-1.4109,-1.4088,-1.4088,-1.4088,0,-1.4405,-1.438,-1.4356,-1.432,-1.4311,-1.4298,-1.427,-1.4252,-1.4224,-1.421,-1.4191,-1.417,-1.4152,-1.4143,-1.4117,-1.4119,-1.4107,-1.4094,-1.4093,-1.409,-1.4081,-1.4094,-1.4109,-1.411,-1.4088,-1.4088,-1.4088,0,-1.4429,-1.439,-1.437,-1.4356,-1.4314,-1.4305,-1.4287,-1.4258,-1.4244,-1.422,-1.421,-1.4184,-1.417,-1.4151,-1.4125,-1.4121,-1.4103,-1.4091,-1.4091,-1.4092,-1.4089,-1.409,-1.4104,-1.4081,-1.4081,-1.4081,-1.4081,0,-1.4436,-1.4423,-1.438,-1.4368,-1.4352,-1.4321,-1.4307,-1.4286,-1.4261,-1.4245,-1.422,-1.4206,-1.4172,-1.4154,-1.4133,-1.4116,-1.411,-1.4098,-1.4093,-1.4101,-1.4102,-1.4093,-1.4092,-1.4081,-1.4081,-1.4081,-1.4081,0,-1.4461,-1.4431,-1.4408,-1.437,-1.436,-1.435,-1.4317,-1.4304,-1.4283,-1.4263,-1.4257,-1.4223,-1.42,-1.4172,-1.4141,-1.4127,-1.4112,-1.4104,-1.4121,-1.4118,-1.412,-1.4121,-1.413,-1.413,-1.4106,-1.4106,-1.4107,0,-1.4467,-1.4456,-1.4416,-1.4403,-1.4386,-1.4366,-1.435,-1.432,-1.4305,-1.4272,-1.4264,-1.4239,-1.4218,-1.4183,-1.4156,-1.4133,-1.4124,-1.4129,-1.412,-1.4129,-1.4125,-1.4126,-1.4125,-1.4131,-1.4131,-1.4132,-1.4132,0,-1.4483,-1.4469,-1.4447,-1.442,-1.4402,-1.438,-1.4357,-1.4348,-1.4313,-1.4298,-1.4274,-1.4257,-1.4225,-1.4201,-1.4174,-1.4156,-1.4139,-1.4135,-1.4134,-1.4142,-1.4153,-1.4148,-1.4128,-1.4135,-1.4135,-1.4134,-1.4134,-1.4134,-1.4499,-1.4488,-1.4458,-1.4435,-1.4414,-1.4393,-1.4379,-1.4356,-1.4335,-1.4306,-1.429,-1.4267,-1.4239,-1.42,-1.4183,-1.4166,-1.4159,-1.4157,-1.4157,-1.4157,-1.416,-1.4155,-1.4161,-1.416,-1.416,-1.416,-1.416,0,-1.4514,-1.4493,-1.4472,-1.444,-1.4422,-1.4406,-1.4379,-1.4365,-1.4345,-1.4321,-1.43,-1.4274,-1.425,-1.4222,-1.4197,-1.4188,-1.418,-1.4183,-1.4184,-1.418,-1.4167,-1.4171,-1.419,-1.419,-1.419,-1.419,-1.419,-1.419,-1.4519,-1.45,-1.4482,-1.4453,-1.4432,-1.4409,-1.4395,-1.4376,-1.4356,-1.4327,-1.4308,-1.4289,-1.4263,-1.4236,-1.4214,-1.4207,-1.4199,-1.4205,-1.4195,-1.4183,-1.4181,-1.4178,-1.4182,-1.4203,-1.4203,-1.4209,-1.4209,-1.4209]},{"header":{"parameterUnit":"m.s-1","parameterCategory":1,"la1":30.2991,"la2":30.254,"lo1":-89.0895,"lo2":-89.0444,"dy":0.0017,"dx":0.0017,"nx":28,"ny":28,"refTime":"2026-02-27T03:00:00:Z","depth":0,"parameterNumber":3,"parameterNumberName":"V-component_of_WINDS"},"data":[0,0,0,0,0,0,0,0,0,0,0,0,0,0,0,0,0,0,0,0,0,0,0,0,0,0,0,0,0,0,0,0,0,0,0,0,0,0,0,0,0,0,0,0,0,0,0,0,0,0,0,0,0,0,0,0,0,0,-1.5564,-1.5564,0,-1.5606,-1.5607,-1.5607,-1.5602,-1.5601,-1.5601,-1.56,-1.564,-1.5642,-1.5644,0,0,0,0,0,0,0,0,0,0,0,0,0,-1.5474,-1.5476,-1.5564,-1.5564,-1.5565,-1.5606,-1.5607,-1.5607,-1.5602,-1.5601,-1.5601,-1.56,-1.564,-1.5642,-1.5644,0,0,0,0,0,0,0,0,0,0,0,0,0,-1.5514,-1.5476,-1.5564,-1.5567,-1.5568,-1.5606,-1.5607,-1.5608,-1.5602,-1.5601,-1.56,-1.5599,-1.5639,-1.5641,-1.5644,-1.568,0,0,-1.5652,-1.5653,0,0,0,0,0,0,0,0,-1.5512,-1.5518,-1.5566,-1.5567,-1.5568,-1.5598,-1.559,-1.5632,-1.5603,-1.5589,-1.56,-1.5599,-1.5627,-1.563,-1.564,-1.5682,-1.5684,-1.5652,-1.5654,-1.5655,-1.5655,0,0,0,0,0,0,0,-1.5509,-1.5516,-1.5581,-1.5567,-1.5568,-1.5566,-1.557,-1.5598,-1.5613,-1.559,-1.559,-1.5595,-1.5627,-1.5638,-1.5641,-1.5684,-1.5652,-1.5654,-1.5656,-1.5657,-1.5757,-1.5758,0,0,0,0,0,0,-1.5506,-1.5514,-1.5579,-1.5582,-1.5537,-1.5568,-1.5573,-1.5589,-1.5613,-1.5615,-1.5596,-1.5595,-1.5634,-1.5638,-1.5643,-1.5686,-1.5655,-1.5657,-1.5658,-1.5756,-1.5757,-1.5758,0,0,0,0,0,0,-1.5504,-1.5512,-1.5578,-1.5548,-1.5556,-1.5571,-1.5589,-1.5591,-1.5602,-1.5617,-1.562,-1.5605,-1.5633,-1.5639,-1.5671,-1.5687,-1.5658,-1.566,-1.5754,-1.5756,-1.5758,-1.5774,0,0,0,0,0,0,-1.5502,-1.5512,-1.5526,-1.5548,-1.5557,-1.5606,-1.559,-1.5592,-1.5607,-1.5605,-1.5626,-1.5628,-1.5633,-1.5667,-1.5673,-1.569,-1.5662,-1.5753,-1.5755,-1.5757,-1.5772,-1.5776,-1.5779,0,0,0,0,0,-1.5499,-1.5529,-1.5527,-1.5535,-1.5577,-1.5607,-1.5613,-1.5618,-1.5608,-1.5622,-1.5632,-1.5628,-1.5685,-1.567,-1.5677,-1.5695,-1.5752,-1.5754,-1.5757,-1.577,-1.5775,-1.5779,0,0,0,0,0,0,-1.5507,-1.5532,-1.553,-1.5568,-1.5586,-1.5606,-1.5625,-1.5623,-1.5643,-1.5641,-1.5646,-1.5651,-1.5683,-1.5692,-1.5676,-1.5731,-1.5717,-1.5721,-1.5724,-1.5729,-1.5732,-1.5729,-1.5665,0,0,0,0,0,-1.5514,-1.5538,-1.5557,-1.5589,-1.5598,-1.561,-1.5624,-1.5627,-1.5644,-1.5651,-1.5664,-1.568,-1.5702,-1.5716,-1.5736,-1.5773,-1.5777,-1.5788,-1.5792,-1.5795,-1.5798,-1.5818,-1.5823,-1.5766,-1.5766,-1.5766,0,0,-1.5527,-1.5543,-1.5558,-1.5591,-1.5605,-1.5629,-1.5616,-1.5642,-1.5659,-1.5655,-1.5686,-1.5695,-1.5714,-1.5748,-1.5764,-1.5757,-1.5815,-1.5798,-1.5801,-1.5802,-1.5821,-1.5826,-1.5831,-1.5768,-1.5768,-1.5768,0,0,-1.5564,-1.5579,-1.5607,-1.5621,-1.5643,-1.5651,-1.5657,-1.5678,-1.5684,-1.5716,-1.5713,-1.5733,-1.577,-1.5783,-1.5795,-1.5836,-1.5832,-1.5842,-1.5861,-1.588,-1.5884,-1.5888,-1.5903,-1.5908,-1.5845,-1.5846,-1.5846,0,-1.5578,-1.5615,-1.5621,-1.5647,-1.5661,-1.566,-1.5687,-1.57,-1.5727,-1.5736,-1.5728,-1.5775,-1.5787,-1.5824,-1.5834,-1.5844,-1.585,-1.584,-1.5884,-1.5888,-1.5891,-1.5905,-1.591,-1.5847,-1.5846,-1.5846,-1.5846,0,-1.563,-1.5655,-1.5675,-1.5702,-1.5718,-1.5745,-1.5754,-1.577,-1.5771,-1.5779,-1.581,-1.5825,-1.5849,-1.5858,-1.5859,-1.5894,-1.5889,-1.5883,-1.5868,-1.5898,-1.591,-1.5916,-1.5848,-1.5848,-1.5847,-1.5847,0,0,-1.5673,-1.5704,-1.5711,-1.5723,-1.5747,-1.5766,-1.5791,-1.5816,-1.5828,-1.5846,-1.5868,-1.5899,-1.5893,-1.5906,-1.5908,-1.5924,-1.5955,-1.5915,-1.5916,-1.5922,-1.5995,-1.6,-1.6006,-1.5953,-1.5954,-1.5955,-1.5993,0,-1.5712,-1.576,-1.5766,-1.5808,-1.5831,-1.5829,-1.5851,-1.5867,-1.5875,-1.5895,-1.5903,-1.5925,-1.5915,-1.5923,-1.5939,-1.5948,-1.597,-1.5945,-1.5972,-1.5973,-1.5967,-1.6013,-1.6018,-1.6054,-1.5998,-1.5999,-1.6,0,-1.5764,-1.5785,-1.5829,-1.5849,-1.5859,-1.5879,-1.5901,-1.592,-1.5938,-1.5942,-1.5957,-1.5957,-1.5982,-1.5967,-1.6001,-1.5985,-1.5995,-1.6001,-1.6003,-1.6005,-1.5988,-1.6016,-1.6065,-1.607,-1.6008,-1.6007,-1.6006,0,-1.5791,-1.583,-1.5861,-1.5871,-1.5896,-1.591,-1.592,-1.5937,-1.5951,-1.5969,-1.5978,-1.5999,-1.6011,-1.6026,-1.6032,-1.602,-1.6066,-1.6051,-1.6069,-1.6069,-1.6079,-1.6078,-1.613,-1.6086,-1.6086,-1.6086,-1.6086,0,-1.5833,-1.586,-1.5874,-1.5893,-1.5923,-1.5929,-1.5958,-1.5967,-1.5982,-1.6002,-1.6001,-1.602,-1.6026,-1.6045,-1.6049,-1.6077,-1.6082,-1.6085,-1.6086,-1.6086,-1.6085,-1.6093,-1.609,-1.6088,-1.6087,-1.6087,-1.6087,0,-1.5869,-1.5879,-1.5913,-1.5933,-1.5939,-1.596,-1.5976,-1.5994,-1.6002,-1.6027,-1.6033,-1.6045,-1.6067,-1.6074,-1.6101,-1.6103,-1.6136,-1.6134,-1.613,-1.613,-1.6148,-1.6147,-1.6207,-1.6215,-1.6166,-1.6166,-1.6167,0,-1.5895,-1.5916,-1.5939,-1.5953,-1.5964,-1.5987,-1.6001,-1.6007,-1.6022,-1.6043,-1.6058,-1.6081,-1.6099,-1.6135,-1.6145,-1.6165,-1.6164,-1.6184,-1.6167,-1.6166,-1.6164,-1.6163,-1.6165,-1.6187,-1.6188,-1.6188,-1.6188,0,-1.5941,-1.5945,-1.5966,-1.599,-1.6007,-1.6025,-1.6042,-1.6053,-1.6062,-1.6078,-1.6102,-1.6116,-1.6144,-1.6166,-1.6187,-1.6196,-1.6193,-1.6194,-1.6199,-1.6198,-1.6195,-1.6197,-1.6139,-1.6192,-1.6192,-1.6191,-1.6191,-1.6191,-1.5973,-1.5991,-1.601,-1.6033,-1.6047,-1.6063,-1.6081,-1.6091,-1.6112,-1.6136,-1.6138,-1.6163,-1.6179,-1.6206,-1.6217,-1.6236,-1.623,-1.6237,-1.6239,-1.6241,-1.6243,-1.6192,-1.6239,-1.6239,-1.6239,-1.6239,-1.6239,0,-1.6018,-1.603,-1.6052,-1.6077,-1.6095,-1.6092,-1.6111,-1.6126,-1.6149,-1.6165,-1.6183,-1.621,-1.6231,-1.6242,-1.6263,-1.6276,-1.6275,-1.6281,-1.628,-1.6282,-1.6247,-1.624,-1.6281,-1.6281,-1.6281,-1.6281,-1.6281,-1.6281,-1.6044,-1.6075,-1.6081,-1.6118,-1.6129,-1.6155,-1.6166,-1.6181,-1.6193,-1.6224,-1.6242,-1.6249,-1.6263,-1.6285,-1.6304,-1.6306,-1.6314,-1.6321,-1.6322,-1.6289,-1.6285,-1.6281,-1.6274,-1.6322,-1.6322,-1.6356,-1.6357,-1.6357]}]]